This demonstration page uses our WeatherBlox Daily Observations layout. Learn more.

Left ArrowRight Arrow

44.8408, -93.29828

Hourly Observations for October 17, 2021

Temp ( °F °C ) Dew Point ( °F °C ) Humidity (%) Winds ( mph kmh ) Pressure ( in mb ) Visibility ( mi km ) Precip ( " mm )
12:53 am 00:53 Clear 47 8.3 38 3.3 71 71 Calm 30.10 1019 10 16 0.00 0.00
1:53 am 01:53 Clear 46 7.8 38 3.3 73 73 Calm 30.10 1019 10 16 0.00 0.00
2:53 am 02:53 Clear 44 6.7 38 3.3 79 79 Calm 30.11 1020 10 16 0.00 0.00
3:53 am 03:53 Clear 43 6.1 38 3.3 82 82 Calm 30.12 1020 10 16 0.00 0.00
4:53 am 04:53 Clear 42 5.6 37 2.8 82 82 Calm 30.14 1021 10 16 0.00 0.00
5:53 am 05:53 Clear 42 5.6 36 2.2 79 79 SW 3 6 30.14 1021 10 16 0.00 0.00
6:53 am 06:53 Clear 40 4.4 36 2.2 86 86 Calm 30.15 1021 10 16 0.00 0.00
7:53 am 07:53 Sunny 41 5 36 2.2 82 82 VRB 3 6 30.15 1021 10 16 0.00 0.00
8:53 am 08:53 Sunny 43 6.1 37 2.8 80 80 SW 3 6 30.16 1021 10 16 0.00 0.00
9:53 am 09:53 Sunny 48 8.9 38 3.3 68 68 S 3 6 30.16 1021 10 16 0.00 0.00
10:53 am 10:53 Sunny 55 12.8 38 3.3 53 53 VRB 3 6 30.16 1021 10 16 0.00 0.00
11:53 am 11:53 Sunny 60 15.6 36 2.2 41 41 VRB 3 6 30.15 1021 10 16 0.00 0.00
12:53 pm 12:53 Sunny 63 17.2 36 2.2 37 37 VRB 7 11 30.14 1021 10 16 0.00 0.00
1:53 pm 13:53 Sunny 66 18.9 34 1.1 30 30 W 8 13 30.11 1020 10 16 0.00 0.00
2:53 pm 14:53 Sunny 67 19.4 36 2.2 32 32 W 5 7 30.09 1019 10 16 0.00 0.00
3:53 pm 15:53 Sunny 68 20 35 1.7 30 30 WSW 6 9 30.08 1019 10 16 0.00 0.00
4:53 pm 16:53 Sunny 68 20 34 1.1 28 28 WSW 5 7 30.06 1018 10 16 0.00 0.00
5:53 pm 17:53 Sunny 67 19.4 34 1.1 30 30 Calm 30.05 1018 10 16 0.00 0.00
6:53 pm 18:53 Clear 61 16.1 35 1.7 38 38 SE 5 7 30.05 1018 10 16 0.00 0.00
7:53 pm 19:53 Clear 60 15.6 37 2.8 42 42 ESE 7 11 30.05 1018 10 16 0.00 0.00
8:53 pm 20:53 Clear 56 13.3 38 3.3 51 51 ESE 6 9 30.05 1018 10 16 0.00 0.00
9:53 pm 21:53 Clear 56 13.3 38 3.3 51 51 Calm 30.06 1018 10 16 0.00 0.00
10:53 pm 22:53 Clear 54 12.2 36 2.2 51 51 SE 3 6 30.05 1018 10 16 0.00 0.00
11:53 pm 23:53 Clear 53 11.7 36 2.2 52 52 SE 3 6 30.04 1017 10 16 0.00 0.00

Powered by AerisWeather